[[{"header":{"parameterUnit":"m.s-1","parameterCategory":1,"la1":30.2991,"la2":30.254,"lo1":-89.0895,"lo2":-89.0444,"dy":0.0017,"dx":0.0017,"nx":28,"ny":28,"refTime":"2025-01-10T03:00:00:Z","depth":0,"parameterNumber":2,"parameterNumberName":"U-component_of_WINDS"},"data":[0,0,0,0,0,0,0,0,0,0,0,0,0,0,0,0,0,0,0,0,0,0,0,0,0,0,0,0,0,0,0,0,0,0,0,0,0,0,0,0,0,0,0,0,0,0,0,0,0,0,0,0,0,0,0,0,0,0,1.0617,1.0616,0,1.06,1.06,1.06,1.0587,1.0587,1.0587,1.0587,1.0568,1.0568,1.0568,0,0,0,0,0,0,0,0,0,0,0,0,0,1.0637,1.0637,1.0617,1.0616,1.0616,1.06,1.06,1.0599,1.0587,1.0587,1.0587,1.0586,1.0569,1.0568,1.0568,0,0,0,0,0,0,0,0,0,0,0,0,0,1.0625,1.0637,1.0617,1.0608,1.0607,1.06,1.06,1.0599,1.0587,1.0587,1.0587,1.0586,1.0569,1.0568,1.0568,1.0568,0,0,1.0566,1.0566,0,0,0,0,0,0,0,0,1.0626,1.0625,1.061,1.0609,1.0608,1.0595,1.06,1.0589,1.0587,1.0595,1.0587,1.0586,1.0577,1.0576,1.0573,1.0567,1.0566,1.0566,1.0566,1.0565,1.0565,0,0,0,0,0,0,0,1.0627,1.0625,1.061,1.0609,1.0608,1.0605,1.0603,1.0598,1.0587,1.0594,1.0593,1.0591,1.0577,1.0574,1.0573,1.0566,1.0566,1.0565,1.0565,1.0565,1.0558,1.0558,0,0,0,0,0,0,1.0629,1.0626,1.0611,1.061,1.0617,1.0605,1.0602,1.0599,1.0587,1.0585,1.0591,1.0591,1.0575,1.0574,1.0572,1.0571,1.0565,1.0565,1.0564,1.0558,1.0558,1.0559,0,0,0,0,0,0,1.063,1.0628,1.0611,1.0617,1.0615,1.0604,1.0601,1.0599,1.0596,1.0585,1.0583,1.059,1.0575,1.0573,1.0569,1.057,1.0565,1.0564,1.0558,1.0558,1.0558,1.0569,0,0,0,0,0,0,1.063,1.0628,1.0628,1.0618,1.0615,1.0608,1.0601,1.0599,1.0595,1.0594,1.0584,1.0582,1.0575,1.057,1.0568,1.0569,1.0564,1.0558,1.0558,1.0558,1.0569,1.057,1.0571,0,0,0,0,0,1.0631,1.0631,1.0628,1.0626,1.0614,1.0608,1.0607,1.0599,1.0596,1.0595,1.0588,1.0582,1.0571,1.057,1.0568,1.0569,1.0558,1.0558,1.0558,1.0568,1.057,1.0571,0,0,0,0,0,0,1.0642,1.063,1.0626,1.0623,1.0617,1.0606,1.0606,1.06,1.0595,1.0594,1.0584,1.0582,1.0579,1.0573,1.0572,1.0568,1.0563,1.0563,1.0572,1.0573,1.0574,1.0575,1.0563,0,0,0,0,0,1.0644,1.064,1.063,1.0628,1.0626,1.0616,1.0613,1.0608,1.0601,1.0598,1.0591,1.0584,1.0579,1.0576,1.057,1.0568,1.0566,1.0568,1.0569,1.057,1.057,1.0569,1.057,1.056,1.056,1.056,0,0,1.0648,1.0641,1.0639,1.063,1.0625,1.0621,1.0614,1.061,1.0607,1.0597,1.0593,1.0588,1.0579,1.0576,1.0575,1.0572,1.0572,1.0571,1.0571,1.0571,1.0569,1.057,1.0571,1.056,1.056,1.056,0,0,1.0654,1.0648,1.0646,1.0641,1.0633,1.0627,1.0627,1.0617,1.0613,1.0609,1.0601,1.0598,1.0589,1.0584,1.058,1.0584,1.0578,1.0583,1.0588,1.0587,1.0588,1.0588,1.059,1.059,1.0583,1.0583,1.0583,0,1.066,1.0654,1.0646,1.0643,1.0639,1.063,1.0628,1.0624,1.0614,1.0612,1.0609,1.0599,1.0593,1.0588,1.0589,1.0587,1.0586,1.0584,1.0588,1.0589,1.0589,1.059,1.0591,1.0584,1.0584,1.0584,1.0584,0,1.0661,1.0658,1.0657,1.0649,1.0645,1.0642,1.0634,1.0631,1.0626,1.0621,1.0616,1.0609,1.0602,1.0601,1.0596,1.0596,1.0594,1.059,1.0585,1.0591,1.0592,1.0592,1.0585,1.0584,1.0584,1.0584,0,0,1.0672,1.066,1.066,1.0656,1.0647,1.0644,1.0641,1.0635,1.0633,1.0627,1.0624,1.0617,1.0614,1.0609,1.0604,1.0603,1.0607,1.0598,1.0598,1.06,1.0606,1.0609,1.0609,1.0603,1.0603,1.0603,1.0607,0,1.0676,1.0671,1.0664,1.066,1.0657,1.0649,1.0647,1.0641,1.0636,1.0632,1.0626,1.0621,1.0617,1.0614,1.0613,1.0606,1.0607,1.0606,1.06,1.06,1.0601,1.061,1.0613,1.0616,1.0607,1.0607,1.0607,0,1.0679,1.0674,1.0671,1.0662,1.0661,1.0659,1.0652,1.0649,1.0642,1.0639,1.0634,1.0628,1.0625,1.0621,1.0616,1.0615,1.0613,1.0609,1.0609,1.0608,1.0603,1.0608,1.0617,1.0618,1.0607,1.0607,1.0607,0,1.0687,1.068,1.0676,1.0674,1.0664,1.0663,1.0658,1.0652,1.0648,1.0643,1.0641,1.0635,1.0632,1.0628,1.0621,1.0619,1.0617,1.0612,1.0613,1.0613,1.0612,1.0612,1.062,1.0612,1.0612,1.0612,1.0612,0,1.0692,1.069,1.068,1.0678,1.0676,1.0668,1.0666,1.0661,1.0655,1.0652,1.0645,1.0643,1.0634,1.063,1.0624,1.0621,1.062,1.0616,1.0615,1.0617,1.0617,1.0614,1.0613,1.0612,1.0612,1.0612,1.0612,0,1.07,1.0693,1.0689,1.0681,1.0678,1.0677,1.067,1.0667,1.0662,1.0658,1.0657,1.0649,1.0644,1.0637,1.063,1.0626,1.0623,1.0621,1.0626,1.0625,1.0626,1.0626,1.0632,1.0632,1.0624,1.0624,1.0624,0,1.0703,1.0701,1.0692,1.069,1.0686,1.0682,1.0679,1.0672,1.0669,1.0662,1.066,1.0655,1.0651,1.0643,1.0637,1.0631,1.0628,1.0631,1.0628,1.063,1.0628,1.0628,1.0628,1.0632,1.0632,1.0632,1.0632,0,1.0708,1.0705,1.0701,1.0696,1.0692,1.0688,1.0683,1.0681,1.0673,1.067,1.0665,1.0662,1.0655,1.065,1.0644,1.0639,1.0634,1.0633,1.0633,1.0635,1.0637,1.0635,1.0627,1.0633,1.0633,1.0633,1.0633,1.0633,1.0714,1.0712,1.0706,1.0701,1.0697,1.0693,1.069,1.0685,1.0681,1.0675,1.0671,1.0666,1.066,1.0652,1.0648,1.0644,1.0642,1.0642,1.0642,1.0642,1.0642,1.0639,1.0643,1.0643,1.0643,1.0643,1.0643,0,1.0719,1.0715,1.0711,1.0704,1.0701,1.0697,1.0692,1.0689,1.0685,1.068,1.0676,1.067,1.0666,1.0659,1.0654,1.0652,1.0649,1.0651,1.065,1.0649,1.0645,1.0645,1.0653,1.0653,1.0653,1.0653,1.0653,1.0653,1.0721,1.0718,1.0714,1.0709,1.0705,1.07,1.0697,1.0693,1.0689,1.0684,1.068,1.0676,1.067,1.0664,1.066,1.0658,1.0656,1.0658,1.0655,1.0651,1.065,1.0649,1.0649,1.0658,1.0658,1.066,1.066,1.066]},{"header":{"parameterUnit":"m.s-1","parameterCategory":1,"la1":30.2991,"la2":30.254,"lo1":-89.0895,"lo2":-89.0444,"dy":0.0017,"dx":0.0017,"nx":28,"ny":28,"refTime":"2025-01-10T03:00:00:Z","depth":0,"parameterNumber":3,"parameterNumberName":"V-component_of_WINDS"},"data":[0,0,0,0,0,0,0,0,0,0,0,0,0,0,0,0,0,0,0,0,0,0,0,0,0,0,0,0,0,0,0,0,0,0,0,0,0,0,0,0,0,0,0,0,0,0,0,0,0,0,0,0,0,0,0,0,0,0,-4.3475,-4.3477,0,-4.362,-4.3622,-4.3624,-4.3619,-4.3618,-4.3616,-4.3614,-4.3759,-4.3764,-4.377,0,0,0,0,0,0,0,0,0,0,0,0,0,-4.3193,-4.3198,-4.3475,-4.3477,-4.3479,-4.362,-4.3622,-4.3624,-4.362,-4.3617,-4.3615,-4.3613,-4.3757,-4.3764,-4.377,0,0,0,0,0,0,0,0,0,0,0,0,0,-4.3324,-4.32,-4.3475,-4.3494,-4.3497,-4.362,-4.3622,-4.3624,-4.362,-4.3617,-4.3614,-4.3612,-4.3755,-4.3763,-4.3771,-4.3883,0,0,-4.3797,-4.3801,0,0,0,0,0,0,0,0,-4.3317,-4.3335,-4.3489,-4.3493,-4.3497,-4.3599,-4.3575,-4.3711,-4.3621,-4.3573,-4.3614,-4.361,-4.3708,-4.372,-4.3753,-4.389,-4.3896,-4.3798,-4.3803,-4.3807,-4.3809,0,0,0,0,0,0,0,-4.3308,-4.3328,-4.3533,-4.3492,-4.3496,-4.3494,-4.351,-4.3601,-4.3655,-4.3577,-4.3577,-4.3595,-4.3709,-4.3745,-4.3757,-4.3899,-4.3798,-4.3806,-4.3811,-4.3814,-4.4135,-4.4139,0,0,0,0,0,0,-4.3295,-4.3321,-4.3528,-4.3537,-4.3398,-4.3502,-4.3519,-4.3569,-4.3654,-4.3665,-4.3597,-4.3594,-4.3732,-4.3747,-4.3762,-4.39,-4.3807,-4.3815,-4.382,-4.4132,-4.4136,-4.414,0,0,0,0,0,0,-4.3289,-4.3313,-4.3522,-4.3429,-4.3455,-4.351,-4.3566,-4.3573,-4.361,-4.3669,-4.3679,-4.3624,-4.373,-4.375,-4.3854,-4.3905,-4.3819,-4.3827,-4.4128,-4.4133,-4.4138,-4.4176,0,0,0,0,0,0,-4.3281,-4.3311,-4.3355,-4.343,-4.346,-4.3612,-4.3569,-4.3578,-4.3625,-4.3622,-4.3697,-4.3707,-4.3729,-4.3841,-4.3862,-4.3915,-4.3833,-4.4124,-4.413,-4.4136,-4.417,-4.4181,-4.4191,0,0,0,0,0,-4.3271,-4.3359,-4.3357,-4.3382,-4.3516,-4.3615,-4.3633,-4.3658,-4.3629,-4.3673,-4.3712,-4.3705,-4.3895,-4.3852,-4.3875,-4.3931,-4.4121,-4.4128,-4.4136,-4.4165,-4.4179,-4.4191,0,0,0,0,0,0,-4.3287,-4.3369,-4.3368,-4.3483,-4.3543,-4.3614,-4.3671,-4.3671,-4.3739,-4.3734,-4.3761,-4.3778,-4.3882,-4.3917,-4.3867,-4.4045,-4.4004,-4.4017,-4.4018,-4.4032,-4.4042,-4.4032,-4.384,0,0,0,0,0,-4.3304,-4.3379,-4.3446,-4.3541,-4.3571,-4.3616,-4.366,-4.3674,-4.3736,-4.3761,-4.3807,-4.3866,-4.394,-4.3988,-4.4059,-4.4175,-4.4191,-4.4225,-4.4236,-4.4244,-4.4255,-4.432,-4.4336,-4.4165,-4.4165,-4.4165,0,0,-4.334,-4.3394,-4.3439,-4.3546,-4.3593,-4.3669,-4.3637,-4.3718,-4.3775,-4.3773,-4.3875,-4.391,-4.3978,-4.4089,-4.414,-4.4122,-4.4306,-4.4254,-4.426,-4.4266,-4.4329,-4.4345,-4.436,-4.417,-4.4169,-4.4168,0,0,-4.3445,-4.3493,-4.3578,-4.3627,-4.37,-4.3729,-4.375,-4.3822,-4.3846,-4.3949,-4.3949,-4.4016,-4.4142,-4.4191,-4.4233,-4.4357,-4.4353,-4.4379,-4.4434,-4.4497,-4.451,-4.4522,-4.4568,-4.4583,-4.4389,-4.439,-4.439,0,-4.348,-4.3596,-4.3621,-4.3704,-4.3751,-4.3754,-4.3841,-4.3886,-4.3978,-4.401,-4.3988,-4.4147,-4.4193,-4.4316,-4.4346,-4.4379,-4.4403,-4.4371,-4.4506,-4.4519,-4.4531,-4.4574,-4.4591,-4.4392,-4.4392,-4.4392,-4.4391,0,-4.3636,-4.3716,-4.3776,-4.3866,-4.392,-4.4003,-4.4042,-4.4093,-4.4102,-4.4134,-4.4238,-4.4294,-4.4377,-4.4407,-4.4416,-4.4531,-4.4518,-4.4501,-4.4461,-4.4549,-4.459,-4.4607,-4.4396,-4.4395,-4.4394,-4.4394,0,0,-4.3755,-4.3859,-4.3881,-4.3922,-4.4004,-4.4066,-4.4149,-4.4232,-4.4275,-4.4338,-4.4409,-4.4516,-4.4502,-4.4549,-4.4564,-4.4619,-4.4715,-4.4596,-4.4598,-4.4617,-4.4846,-4.4859,-4.4878,-4.4713,-4.4716,-4.4719,-4.4841,0,-4.3868,-4.4019,-4.4045,-4.4177,-4.4251,-4.4255,-4.4329,-4.4386,-4.4418,-4.4485,-4.4519,-4.4596,-4.457,-4.4598,-4.4653,-4.4692,-4.4762,-4.4683,-4.4779,-4.4783,-4.4763,-4.4899,-4.4913,-4.5026,-4.4857,-4.486,-4.4862,0,-4.4021,-4.4091,-4.423,-4.4302,-4.4334,-4.44,-4.4478,-4.4542,-4.4607,-4.4626,-4.4679,-4.4688,-4.4775,-4.4731,-4.4851,-4.4797,-4.4838,-4.4863,-4.4868,-4.4878,-4.4828,-4.4914,-4.5062,-4.5079,-4.4887,-4.4885,-4.4883,0,-4.4096,-4.4223,-4.4323,-4.4358,-4.4445,-4.4491,-4.4529,-4.4591,-4.4639,-4.4707,-4.4738,-4.4814,-4.4856,-4.4915,-4.4944,-4.4909,-4.5063,-4.5021,-4.5081,-4.5081,-4.5114,-4.5112,-4.5271,-4.5139,-4.5138,-4.5138,-4.5138,0,-4.422,-4.4306,-4.4358,-4.442,-4.4515,-4.4544,-4.4638,-4.4674,-4.473,-4.4798,-4.4806,-4.487,-4.4904,-4.4973,-4.4996,-4.5093,-4.5111,-4.5129,-4.5135,-4.5129,-4.5127,-4.5157,-4.515,-4.5143,-4.5142,-4.5141,-4.514,0,-4.432,-4.4358,-4.4468,-4.4541,-4.4561,-4.4629,-4.4691,-4.4751,-4.4782,-4.4869,-4.4891,-4.4941,-4.5022,-4.5057,-4.5157,-4.5173,-4.5284,-4.5282,-4.5262,-4.5264,-4.5323,-4.5318,-4.5508,-4.5535,-4.5384,-4.5385,-4.5386,0,-4.4397,-4.4463,-4.4544,-4.4591,-4.4631,-4.4706,-4.4756,-4.4787,-4.4838,-4.4918,-4.4968,-4.505,-4.5117,-4.5247,-4.5292,-4.5368,-4.537,-4.5431,-4.5381,-4.5374,-4.5372,-4.5368,-4.5375,-4.5441,-4.5442,-4.5443,-4.5444,0,-4.4531,-4.4547,-4.4619,-4.4698,-4.4757,-4.4821,-4.4882,-4.492,-4.496,-4.5017,-4.5102,-4.5154,-4.5257,-4.5339,-4.5418,-4.5456,-4.5458,-4.546,-4.5478,-4.5474,-4.546,-4.5469,-4.5288,-4.5455,-4.5454,-4.5453,-4.5453,-4.5452,-4.4623,-4.4682,-4.4749,-4.4829,-4.4879,-4.4937,-4.4997,-4.5037,-4.5108,-4.5195,-4.5209,-4.5299,-4.5362,-4.547,-4.5511,-4.5582,-4.5566,-4.5592,-4.5599,-4.5605,-4.561,-4.5448,-4.5596,-4.5596,-4.5595,-4.5595,-4.5595,0,-4.4758,-4.4802,-4.4875,-4.4962,-4.5025,-4.5021,-4.509,-4.5142,-4.5222,-4.5282,-4.5349,-4.5446,-4.5525,-4.5576,-4.5656,-4.5703,-4.5706,-4.5723,-4.572,-4.5729,-4.5618,-4.5595,-4.572,-4.572,-4.572,-4.572,-4.572,-4.5719,-4.4836,-4.4937,-4.4961,-4.5086,-4.5129,-4.5218,-4.5258,-4.5311,-4.5359,-4.5468,-4.5534,-4.5568,-4.5624,-4.5708,-4.5781,-4.5794,-4.5823,-4.5842,-4.5854,-4.575,-4.5737,-4.5724,-4.5703,-4.5848,-4.5848,-4.5959,-4.596,-4.5961]}]]